Location: Dana
(41.8364°N, 106.7042°W)
Time: 00:25:25
(UTC+00:00)

Transit 2A Rocket - All Passes

Search period start: 12 May 2026 00:00
Search period end: 22 May 2026 00:00
Orbit: 587 x 895 km, 66.7° (Epoch: 11 May)

Date Brightness Start Highest point End Pass type
(mag) Time Alt. Az. Time Alt. Az. Time Alt. Az.
12 May - 01:27:52 10° SSE 01:32:01 21° ESE 01:35:58 10° ENE daylight
12 May - 03:08:20 10° SW 03:14:01 61° WNW 03:19:17 10° NNE visible
12 May - 04:55:02 10° WNW 04:57:20 13° NW 04:59:35 10° NNW visible
12 May - 10:10:02 10° N 10:12:50 16° NE 10:15:32 10° E visible
12 May - 11:51:13 10° NW 11:55:45 72° WSW 12:00:01 10° SSE daylight
13 May - 00:45:28 10° ESE 00:46:37 11° ESE 00:47:45 10° E daylight
13 May - 02:22:29 10° SSW 02:28:15 78° ESE 02:33:36 10° NNE daylight
13 May - 04:07:09 10° W 04:11:08 20° NW 04:14:56 10° N visible
13 May - 11:05:31 10° NNW 11:10:01 57° NE 11:14:16 10° SE visible
13 May - 12:49:29 10° WNW 12:51:44 14° WSW 12:53:55 10° SW daylight
14 May - 01:37:12 10° S 01:42:37 43° ESE 01:47:41 10° NE daylight
14 May - 03:20:06 10° WSW 03:25:05 31° NW 03:29:45 10° NNE visible
14 May - 10:20:05 10° NNW 10:24:08 30° NE 10:27:58 10° ESE visible
14 May - 12:02:32 10° NW 12:06:20 28° WSW 12:09:59 10° S daylight
15 May - 00:52:34 10° SSE 00:57:04 24° ESE 01:01:21 10° ENE daylight
15 May - 02:33:37 10° SW 02:39:10 52° NW 02:44:20 10° NNE daylight
15 May - 04:21:16 10° NW 04:22:38 11° NW 04:24:00 10° NNW visible
15 May - 09:34:56 10° N 09:38:04 18° NE 09:41:04 10° E visible
15 May - 11:16:23 10° NW 11:20:49 58° WSW 11:25:00 10° SSE visible
16 May - 00:09:11 10° SE 00:11:39 13° ESE 00:14:02 10° ENE daylight
16 May - 01:47:38 10° SSW 01:53:23 90° SE 01:58:42 10° NNE daylight
16 May - 03:32:49 10° W 03:36:23 17° NW 03:39:47 10° N visible
16 May - 08:50:40 10° NNE 08:51:50 11° NE 08:52:58 10° NE visible
16 May - 10:30:37 10° NNW 10:35:08 69° ENE 10:39:25 10° SE visible
16 May - 12:15:31 10° W 12:16:42 11° WSW 12:17:53 10° WSW daylight
17 May - 01:02:11 10° S 01:07:42 51° ESE 01:12:52 10° NE daylight
17 May - 02:45:34 10° WSW 02:50:17 27° NW 02:54:43 10° N visible
17 May - 09:45:06 10° NNW 09:49:17 35° NE 09:53:16 10° ESE visible
17 May - 11:27:52 10° WNW 11:31:21 23° WSW 11:34:44 10° SSW daylight
18 May - 00:17:20 10° SSE 00:22:08 28° ESE 00:26:41 10° NE daylight
18 May - 01:58:56 10° SW 02:04:20 45° NW 02:09:22 10° NNE daylight
18 May - 08:59:51 10° N 09:03:17 20° NE 09:06:33 10° E visible
18 May - 10:41:34 10° NW 10:45:52 47° WSW 10:49:58 10° S visible
18 May - 23:33:28 10° SE 23:36:41 15° ESE 23:39:46 10° ENE daylight
19 May - 01:12:49 10° SW 01:18:31 78° WNW 01:23:48 10° NNE daylight
19 May - 02:58:34 10° WNW 03:01:38 15° NW 03:04:34 10° N visible
19 May - 08:15:11 10° NNE 08:17:05 12° NE 08:18:57 10° ENE visible
19 May - 09:55:43 10° NNW 10:00:14 84° ENE 10:04:31 10° SSE visible
20 May - 00:27:12 10° SSW 00:32:49 60° ESE 00:38:01 10° NE daylight
20 May - 02:11:05 10° W 02:15:30 24° NW 02:19:39 10° N daylight
20 May - 09:10:08 10° NNW 09:14:26 42° NE 09:18:31 10° SE visible
20 May - 10:53:17 10° WNW 10:56:21 19° WSW 10:59:21 10° SSW visible
20 May - 23:42:10 10° S 23:47:12 33° ESE 23:51:57 10° NE daylight
21 May - 01:24:17 10° WSW 01:29:31 38° NW 01:34:22 10° NNE daylight
21 May - 08:24:48 10° N 08:28:28 23° NE 08:31:58 10° ESE visible
21 May - 10:06:48 10° NW 10:10:55 38° WSW 10:14:51 10° S visible
21 May - 22:57:58 10° SSE 23:01:43 18° ESE 23:05:19 10° ENE daylight
